DRAGON FREEDOM

Last updated on Tue May 10 2022 00:02:05 GMT+0000 (Coordinated Universal Time)

1 52318U 22042A 22129.52030277 .00006106 00000+0 11487-3 0 9997 2 52318 51.6428 168.0812 0006716 80.5934 65.6736 15.49999836339182
UTC large
Height (km)
Speed (km/s)
/
Latitude / Longitude
Inclination (degrees)
Orbital Period (minutes)
Azimuth
Elevation
Range (km)
Doppler Factor

Next 0 passes for location: London (51.5072 / 0.1276)

Sorry there are no passes over London.